#datetime,building,power
2022-07-29T00:00:00,75s,1.20
2022-07-29T00:01:00,75s,1.18
2022-07-29T00:02:00,75s,1.18
2022-07-29T00:03:00,75s,1.21
2022-07-29T00:04:00,75s,1.32
2022-07-29T00:05:00,75s,1.32
2022-07-29T00:06:00,75s,1.38
2022-07-29T00:07:00,75s,1.35
2022-07-29T00:08:00,75s,1.34
2022-07-29T00:09:00,75s,1.26
2022-07-29T00:10:00,75s,1.26
2022-07-29T00:11:00,75s,1.17
2022-07-29T00:12:00,75s,1.19
2022-07-29T00:13:00,75s,1.20
2022-07-29T00:14:00,75s,1.20
2022-07-29T00:15:00,75s,1.20
2022-07-29T00:16:00,75s,1.32
2022-07-29T00:17:00,75s,1.41
2022-07-29T00:18:00,75s,1.99
2022-07-29T00:19:00,75s,1.37
2022-07-29T00:20:00,75s,1.29
2022-07-29T00:21:00,75s,1.36
2022-07-29T00:22:00,75s,1.36
2022-07-29T00:23:00,75s,1.28
2022-07-29T00:24:00,75s,1.28
2022-07-29T00:25:00,75s,1.28
2022-07-29T00:26:00,75s,1.29
2022-07-29T00:27:00,75s,1.28
2022-07-29T00:28:00,75s,1.38
2022-07-29T00:29:00,75s,1.70
2022-07-29T00:30:00,75s,1.82
2022-07-29T00:31:00,75s,1.46
2022-07-29T00:32:00,75s,1.43
2022-07-29T00:33:00,75s,1.44
2022-07-29T00:34:00,75s,1.24
2022-07-29T00:35:00,75s,1.23
2022-07-29T00:36:00,75s,1.23
2022-07-29T00:37:00,75s,1.23
2022-07-29T00:38:00,75s,1.24
2022-07-29T00:39:00,75s,1.23
2022-07-29T00:40:00,75s,1.93
2022-07-29T00:41:00,75s,1.33
2022-07-29T00:42:00,75s,1.24
2022-07-29T00:43:00,75s,1.39
2022-07-29T00:44:00,75s,1.66
2022-07-29T00:45:00,75s,1.65
2022-07-29T00:46:00,75s,1.21
2022-07-29T00:47:00,75s,1.21
2022-07-29T00:48:00,75s,1.21
2022-07-29T00:49:00,75s,1.29
2022-07-29T00:50:00,75s,1.29
2022-07-29T00:51:00,75s,1.21
2022-07-29T00:52:00,75s,1.20
2022-07-29T00:53:00,75s,1.32
2022-07-29T00:54:00,75s,1.38
2022-07-29T00:55:00,75s,1.40
2022-07-29T00:56:00,75s,1.40
2022-07-29T00:57:00,75s,1.24
2022-07-29T00:58:00,75s,1.24
2022-07-29T00:59:00,75s,1.41
2022-07-29T01:00:00,75s,1.21
2022-07-29T01:01:00,75s,1.21
2022-07-29T01:02:00,75s,1.23
2022-07-29T01:03:00,75s,1.23
2022-07-29T01:04:00,75s,1.28
2022-07-29T01:05:00,75s,1.38
2022-07-29T01:06:00,75s,1.39
2022-07-29T01:07:00,75s,1.46
2022-07-29T01:08:00,75s,1.39
2022-07-29T01:09:00,75s,1.27
2022-07-29T01:10:00,75s,1.28
2022-07-29T01:11:00,75s,1.28
2022-07-29T01:12:00,75s,1.28
2022-07-29T01:13:00,75s,1.54
2022-07-29T01:14:00,75s,1.28
2022-07-29T01:15:00,75s,1.37
2022-07-29T01:16:00,75s,1.36
2022-07-29T01:17:00,75s,1.40
2022-07-29T01:18:00,75s,1.37
2022-07-29T01:19:00,75s,1.34
2022-07-29T01:20:00,75s,1.44
2022-07-29T01:21:00,75s,1.34
2022-07-29T01:22:00,75s,1.29
2022-07-29T01:23:00,75s,1.20
2022-07-29T01:24:00,75s,1.22
2022-07-29T01:25:00,75s,1.21
2022-07-29T01:26:00,75s,1.29
2022-07-29T01:27:00,75s,1.29
2022-07-29T01:28:00,75s,1.36
2022-07-29T01:29:00,75s,1.30
2022-07-29T01:30:00,75s,1.29
2022-07-29T01:31:00,75s,1.28
2022-07-29T01:32:00,75s,1.28
2022-07-29T01:33:00,75s,1.28
2022-07-29T01:34:00,75s,1.20
2022-07-29T01:35:00,75s,1.26
2022-07-29T01:36:00,75s,1.26
2022-07-29T01:37:00,75s,1.56
2022-07-29T01:38:00,75s,1.30
2022-07-29T01:39:00,75s,1.60
2022-07-29T01:40:00,75s,1.65
2022-07-29T01:41:00,75s,1.76
2022-07-29T01:42:00,75s,1.31
2022-07-29T01:43:00,75s,1.39
2022-07-29T01:44:00,75s,1.30
2022-07-29T01:45:00,75s,1.30
2022-07-29T01:46:00,75s,1.20
2022-07-29T01:47:00,75s,1.20
2022-07-29T01:48:00,75s,1.29
2022-07-29T01:49:00,75s,1.29
2022-07-29T01:50:00,75s,1.37
2022-07-29T01:51:00,75s,1.28
2022-07-29T01:52:00,75s,1.63
2022-07-29T01:53:00,75s,1.33
2022-07-29T01:54:00,75s,1.43
2022-07-29T01:55:00,75s,1.43
2022-07-29T01:56:00,75s,1.43
2022-07-29T01:57:00,75s,1.43
2022-07-29T01:58:00,75s,1.45
2022-07-29T01:59:00,75s,1.33
2022-07-29T02:00:00,75s,1.40
2022-07-29T02:01:00,75s,1.49
2022-07-29T02:02:00,75s,1.49
2022-07-29T02:03:00,75s,1.41
2022-07-29T02:04:00,75s,1.33
2022-07-29T02:05:00,75s,1.34
2022-07-29T02:06:00,75s,1.44
2022-07-29T02:07:00,75s,1.42
2022-07-29T02:08:00,75s,1.42
2022-07-29T02:09:00,75s,1.37
2022-07-29T02:10:00,75s,1.28
2022-07-29T02:11:00,75s,1.36
2022-07-29T02:12:00,75s,1.50
2022-07-29T02:13:00,75s,1.44
2022-07-29T02:14:00,75s,1.27
2022-07-29T02:15:00,75s,1.20
2022-07-29T02:16:00,75s,1.20
2022-07-29T02:17:00,75s,1.49
2022-07-29T02:18:00,75s,1.31
2022-07-29T02:19:00,75s,1.29
2022-07-29T02:20:00,75s,1.29
2022-07-29T02:21:00,75s,1.25
2022-07-29T02:22:00,75s,1.22
2022-07-29T02:23:00,75s,1.24
2022-07-29T02:24:00,75s,1.32
2022-07-29T02:25:00,75s,1.24
2022-07-29T02:26:00,75s,1.24
2022-07-29T02:27:00,75s,1.14
2022-07-29T02:28:00,75s,1.14
2022-07-29T02:29:00,75s,1.15
2022-07-29T02:30:00,75s,1.25
2022-07-29T02:31:00,75s,1.25
2022-07-29T02:32:00,75s,1.25
2022-07-29T02:33:00,75s,1.32
2022-07-29T02:34:00,75s,1.32
2022-07-29T02:35:00,75s,1.22
2022-07-29T02:36:00,75s,1.22
2022-07-29T02:37:00,75s,1.12
2022-07-29T02:38:00,75s,1.13
2022-07-29T02:39:00,75s,1.28
2022-07-29T02:40:00,75s,1.27
2022-07-29T02:41:00,75s,1.34
2022-07-29T02:42:00,75s,1.47
2022-07-29T02:43:00,75s,1.44
2022-07-29T02:44:00,75s,1.35
2022-07-29T02:45:00,75s,1.50
2022-07-29T02:46:00,75s,1.51
2022-07-29T02:47:00,75s,1.34
2022-07-29T02:48:00,75s,1.26
2022-07-29T02:49:00,75s,1.26
2022-07-29T02:50:00,75s,1.26
2022-07-29T02:51:00,75s,1.26
2022-07-29T02:52:00,75s,1.26
2022-07-29T02:53:00,75s,1.25
2022-07-29T02:54:00,75s,1.25
2022-07-29T02:55:00,75s,1.35
2022-07-29T02:56:00,75s,1.35
2022-07-29T02:57:00,75s,1.39
2022-07-29T02:58:00,75s,1.71
2022-07-29T02:59:00,75s,1.38
2022-07-29T03:00:00,75s,1.22
2022-07-29T03:01:00,75s,1.31
2022-07-29T03:02:00,75s,1.15
2022-07-29T03:03:00,75s,1.32
2022-07-29T03:04:00,75s,1.15
2022-07-29T03:05:00,75s,1.38
2022-07-29T03:06:00,75s,1.22
2022-07-29T03:07:00,75s,1.27
2022-07-29T03:08:00,75s,1.25
2022-07-29T03:09:00,75s,1.24
2022-07-29T03:10:00,75s,1.32
2022-07-29T03:11:00,75s,1.22
2022-07-29T03:12:00,75s,1.22
2022-07-29T03:13:00,75s,1.21
2022-07-29T03:14:00,75s,1.31
2022-07-29T03:15:00,75s,1.28
2022-07-29T03:16:00,75s,1.57
2022-07-29T03:17:00,75s,1.28
2022-07-29T03:18:00,75s,1.20
2022-07-29T03:19:00,75s,1.31
2022-07-29T03:20:00,75s,1.30
2022-07-29T03:21:00,75s,1.31
2022-07-29T03:22:00,75s,1.38
2022-07-29T03:23:00,75s,1.29
2022-07-29T03:24:00,75s,1.29
2022-07-29T03:25:00,75s,1.30
2022-07-29T03:26:00,75s,1.34
2022-07-29T03:27:00,75s,1.33
2022-07-29T03:28:00,75s,1.42
2022-07-29T03:29:00,75s,1.64
2022-07-29T03:30:00,75s,1.35
2022-07-29T03:31:00,75s,1.44
2022-07-29T03:32:00,75s,1.43
2022-07-29T03:33:00,75s,1.44
2022-07-29T03:34:00,75s,1.51
2022-07-29T03:35:00,75s,1.52
2022-07-29T03:36:00,75s,1.41
2022-07-29T03:37:00,75s,10.65
2022-07-29T03:38:00,75s,10.55
2022-07-29T03:39:00,75s,10.48
2022-07-29T03:40:00,75s,10.53
2022-07-29T03:41:00,75s,10.42
2022-07-29T03:42:00,75s,1.43
2022-07-29T03:43:00,75s,1.35
2022-07-29T03:44:00,75s,1.42
2022-07-29T03:45:00,75s,1.43
2022-07-29T03:46:00,75s,1.45
2022-07-29T03:47:00,75s,1.37
2022-07-29T03:48:00,75s,1.28
2022-07-29T03:49:00,75s,1.20
2022-07-29T03:50:00,75s,1.22
2022-07-29T03:51:00,75s,1.28
2022-07-29T03:52:00,75s,1.28
2022-07-29T03:53:00,75s,1.28
2022-07-29T03:54:00,75s,1.21
2022-07-29T03:55:00,75s,1.20
2022-07-29T03:56:00,75s,1.30
2022-07-29T03:57:00,75s,1.40
2022-07-29T03:58:00,75s,1.40
2022-07-29T03:59:00,75s,1.78
2022-07-29T04:00:00,75s,1.21
2022-07-29T04:01:00,75s,1.18
2022-07-29T04:02:00,75s,1.19
2022-07-29T04:03:00,75s,1.26
2022-07-29T04:04:00,75s,1.26
2022-07-29T04:05:00,75s,1.26
2022-07-29T04:06:00,75s,1.19
2022-07-29T04:07:00,75s,1.17
2022-07-29T04:08:00,75s,1.27
2022-07-29T04:09:00,75s,1.36
2022-07-29T04:10:00,75s,1.36
2022-07-29T04:11:00,75s,1.44
2022-07-29T04:12:00,75s,1.26
2022-07-29T04:13:00,75s,1.26
2022-07-29T04:14:00,75s,1.38
2022-07-29T04:15:00,75s,1.39
2022-07-29T04:16:00,75s,1.38
2022-07-29T04:17:00,75s,1.33
2022-07-29T04:18:00,75s,1.32
2022-07-29T04:19:00,75s,1.32
2022-07-29T04:20:00,75s,1.45
2022-07-29T04:21:00,75s,1.45
2022-07-29T04:22:00,75s,1.45
2022-07-29T04:23:00,75s,1.37
2022-07-29T04:24:00,75s,1.36
2022-07-29T04:25:00,75s,1.34
2022-07-29T04:26:00,75s,1.34
2022-07-29T04:27:00,75s,1.77
2022-07-29T04:28:00,75s,1.26
2022-07-29T04:29:00,75s,1.26
2022-07-29T04:30:00,75s,1.26
2022-07-29T04:31:00,75s,1.22
2022-07-29T04:32:00,75s,1.09
2022-07-29T04:33:00,75s,1.21
2022-07-29T04:34:00,75s,1.18
2022-07-29T04:35:00,75s,1.19
2022-07-29T04:36:00,75s,1.28
2022-07-29T04:37:00,75s,1.25
2022-07-29T04:38:00,75s,1.25
2022-07-29T04:39:00,75s,1.17
2022-07-29T04:40:00,75s,1.09
2022-07-29T04:41:00,75s,1.09
2022-07-29T04:42:00,75s,1.32
2022-07-29T04:43:00,75s,1.10
2022-07-29T04:44:00,75s,1.08
2022-07-29T04:45:00,75s,1.26
2022-07-29T04:46:00,75s,1.25
2022-07-29T04:47:00,75s,1.25
2022-07-29T04:48:00,75s,1.60
2022-07-29T04:49:00,75s,1.51
2022-07-29T04:50:00,75s,1.51
2022-07-29T04:51:00,75s,1.50
2022-07-29T04:52:00,75s,1.80
2022-07-29T04:53:00,75s,1.95
2022-07-29T04:54:00,75s,1.86
2022-07-29T04:55:00,75s,1.55
2022-07-29T04:56:00,75s,1.46
2022-07-29T04:57:00,75s,1.67
2022-07-29T04:58:00,75s,1.73
2022-07-29T04:59:00,75s,1.72
2022-07-29T05:00:00,75s,1.72
2022-07-29T05:01:00,75s,1.68
2022-07-29T05:02:00,75s,1.70
2022-07-29T05:03:00,75s,1.70
2022-07-29T05:04:00,75s,1.70
2022-07-29T05:05:00,75s,1.71
2022-07-29T05:06:00,75s,1.80
2022-07-29T05:07:00,75s,1.88
2022-07-29T05:08:00,75s,1.89
2022-07-29T05:09:00,75s,1.92
2022-07-29T05:10:00,75s,1.83
2022-07-29T05:11:00,75s,1.83
2022-07-29T05:12:00,75s,1.83
2022-07-29T05:13:00,75s,1.80
2022-07-29T05:14:00,75s,1.71
2022-07-29T05:15:00,75s,1.69
2022-07-29T05:16:00,75s,1.67
2022-07-29T05:17:00,75s,1.66
2022-07-29T05:18:00,75s,1.64
2022-07-29T05:19:00,75s,1.67
2022-07-29T05:20:00,75s,1.67
2022-07-29T05:21:00,75s,1.99
2022-07-29T05:22:00,75s,1.64
2022-07-29T05:23:00,75s,1.62
2022-07-29T05:24:00,75s,1.61
2022-07-29T05:25:00,75s,1.61
2022-07-29T05:26:00,75s,1.52
2022-07-29T05:27:00,75s,1.52
2022-07-29T05:28:00,75s,1.52
2022-07-29T05:29:00,75s,2.15
2022-07-29T05:30:00,75s,1.62
2022-07-29T05:31:00,75s,1.69
2022-07-29T05:32:00,75s,1.69
2022-07-29T05:33:00,75s,1.62
2022-07-29T05:34:00,75s,1.65
2022-07-29T05:35:00,75s,1.94
2022-07-29T05:36:00,75s,1.96
2022-07-29T05:37:00,75s,1.63
2022-07-29T05:38:00,75s,1.55
2022-07-29T05:39:00,75s,1.53
2022-07-29T05:40:00,75s,1.47
2022-07-29T05:41:00,75s,1.47
2022-07-29T05:42:00,75s,1.55
2022-07-29T05:43:00,75s,1.75
2022-07-29T05:44:00,75s,1.73
2022-07-29T05:45:00,75s,1.91
2022-07-29T05:46:00,75s,1.67
2022-07-29T05:47:00,75s,1.66
2022-07-29T05:48:00,75s,1.72
2022-07-29T05:49:00,75s,1.71
2022-07-29T05:50:00,75s,1.61
2022-07-29T05:51:00,75s,1.60
2022-07-29T05:52:00,75s,1.29
2022-07-29T05:53:00,75s,1.30
2022-07-29T05:54:00,75s,1.47
2022-07-29T05:55:00,75s,1.45
2022-07-29T05:56:00,75s,1.45
2022-07-29T05:57:00,75s,1.29
2022-07-29T05:58:00,75s,1.49
2022-07-29T05:59:00,75s,1.39
2022-07-29T06:00:00,75s,1.37
2022-07-29T06:01:00,75s,2.57
2022-07-29T06:02:00,75s,3.10
2022-07-29T06:03:00,75s,3.56
2022-07-29T06:04:00,75s,3.10
2022-07-29T06:05:00,75s,3.50
2022-07-29T06:06:00,75s,13.67
2022-07-29T06:07:00,75s,13.47
2022-07-29T06:08:00,75s,13.28
2022-07-29T06:09:00,75s,13.55
2022-07-29T06:10:00,75s,13.24
2022-07-29T06:11:00,75s,13.34
2022-07-29T06:12:00,75s,13.49
2022-07-29T06:13:00,75s,13.32
2022-07-29T06:14:00,75s,13.75
2022-07-29T06:15:00,75s,13.20
2022-07-29T06:16:00,75s,19.11
2022-07-29T06:17:00,75s,19.07
2022-07-29T06:18:00,75s,19.39
2022-07-29T06:19:00,75s,19.29
2022-07-29T06:20:00,75s,13.80
2022-07-29T06:21:00,75s,13.48
2022-07-29T06:22:00,75s,13.53
2022-07-29T06:23:00,75s,14.00
2022-07-29T06:24:00,75s,13.67
2022-07-29T06:25:00,75s,13.88
2022-07-29T06:26:00,75s,13.87
2022-07-29T06:27:00,75s,13.78
2022-07-29T06:28:00,75s,13.86
2022-07-29T06:29:00,75s,3.69
2022-07-29T06:30:00,75s,3.79
2022-07-29T06:31:00,75s,3.79
2022-07-29T06:32:00,75s,3.74
2022-07-29T06:33:00,75s,3.75
2022-07-29T06:34:00,75s,3.78
2022-07-29T06:35:00,75s,3.89
2022-07-29T06:36:00,75s,3.80
2022-07-29T06:37:00,75s,14.21
2022-07-29T06:38:00,75s,14.42
2022-07-29T06:39:00,75s,14.10
2022-07-29T06:40:00,75s,14.04
2022-07-29T06:41:00,75s,14.05
2022-07-29T06:42:00,75s,14.08
2022-07-29T06:43:00,75s,14.08
2022-07-29T06:44:00,75s,14.18
2022-07-29T06:45:00,75s,14.22
2022-07-29T06:46:00,75s,14.24
2022-07-29T06:47:00,75s,19.83
2022-07-29T06:48:00,75s,19.89
2022-07-29T06:49:00,75s,19.87
2022-07-29T06:50:00,75s,19.80
2022-07-29T06:51:00,75s,19.89
2022-07-29T06:52:00,75s,19.82
2022-07-29T06:53:00,75s,19.78
2022-07-29T06:54:00,75s,19.75
2022-07-29T06:55:00,75s,19.78
2022-07-29T06:56:00,75s,19.78
2022-07-29T06:57:00,75s,19.81
2022-07-29T06:58:00,75s,19.93
2022-07-29T06:59:00,75s,19.84
2022-07-29T07:00:00,75s,14.51
2022-07-29T07:01:00,75s,14.47
2022-07-29T07:02:00,75s,14.37
2022-07-29T07:03:00,75s,14.30
2022-07-29T07:04:00,75s,14.19
2022-07-29T07:05:00,75s,14.19
2022-07-29T07:06:00,75s,14.24
2022-07-29T07:07:00,75s,14.22
2022-07-29T07:08:00,75s,14.24
2022-07-29T07:09:00,75s,14.25
2022-07-29T07:10:00,75s,14.28
2022-07-29T07:11:00,75s,14.35
2022-07-29T07:12:00,75s,14.45
2022-07-29T07:13:00,75s,14.54
2022-07-29T07:14:00,75s,14.46
2022-07-29T07:15:00,75s,14.52
2022-07-29T07:16:00,75s,14.36
2022-07-29T07:17:00,75s,14.36
2022-07-29T07:18:00,75s,14.41
2022-07-29T07:19:00,75s,14.39
2022-07-29T07:20:00,75s,14.47
2022-07-29T07:21:00,75s,14.43
2022-07-29T07:22:00,75s,14.38
2022-07-29T07:23:00,75s,14.55
2022-07-29T07:24:00,75s,14.66
2022-07-29T07:25:00,75s,14.67
2022-07-29T07:26:00,75s,14.68
2022-07-29T07:27:00,75s,14.74
2022-07-29T07:28:00,75s,14.76
2022-07-29T07:29:00,75s,20.23
2022-07-29T07:30:00,75s,29.38
2022-07-29T07:31:00,75s,29.67
2022-07-29T07:32:00,75s,29.16
2022-07-29T07:33:00,75s,29.16
2022-07-29T07:34:00,75s,29.17
2022-07-29T07:35:00,75s,20.50
2022-07-29T07:36:00,75s,20.51
2022-07-29T07:37:00,75s,20.96
2022-07-29T07:38:00,75s,22.15
2022-07-29T07:39:00,75s,24.04
2022-07-29T07:40:00,75s,25.74
2022-07-29T07:41:00,75s,26.39
2022-07-29T07:42:00,75s,26.98
2022-07-29T07:43:00,75s,27.10
2022-07-29T07:44:00,75s,27.11
2022-07-29T07:45:00,75s,27.22
2022-07-29T07:46:00,75s,27.34
2022-07-29T07:47:00,75s,27.34
2022-07-29T07:48:00,75s,27.38
2022-07-29T07:49:00,75s,27.31
2022-07-29T07:50:00,75s,27.31
2022-07-29T07:51:00,75s,27.22
2022-07-29T07:52:00,75s,27.18
2022-07-29T07:53:00,75s,27.05
2022-07-29T07:54:00,75s,27.13
2022-07-29T07:55:00,75s,26.76
2022-07-29T07:56:00,75s,26.81
2022-07-29T07:57:00,75s,26.49
2022-07-29T07:58:00,75s,26.87
2022-07-29T07:59:00,75s,26.72
2022-07-29T08:00:00,75s,26.68
2022-07-29T08:01:00,75s,26.88
2022-07-29T08:02:00,75s,26.85
2022-07-29T08:03:00,75s,25.99
2022-07-29T08:04:00,75s,26.05
2022-07-29T08:05:00,75s,26.06
2022-07-29T08:06:00,75s,25.94
2022-07-29T08:07:00,75s,25.83
2022-07-29T08:08:00,75s,25.69
2022-07-29T08:09:00,75s,23.90
2022-07-29T08:10:00,75s,21.36
2022-07-29T08:11:00,75s,20.59
2022-07-29T08:12:00,75s,20.51
2022-07-29T08:13:00,75s,20.43
2022-07-29T08:14:00,75s,20.49
2022-07-29T08:15:00,75s,20.38
2022-07-29T08:16:00,75s,20.32
2022-07-29T08:17:00,75s,20.33
2022-07-29T08:18:00,75s,20.13
2022-07-29T08:19:00,75s,20.16
2022-07-29T08:20:00,75s,20.05
2022-07-29T08:21:00,75s,19.68
2022-07-29T08:22:00,75s,19.76
2022-07-29T08:23:00,75s,19.82
2022-07-29T08:24:00,75s,20.08
2022-07-29T08:25:00,75s,19.78
2022-07-29T08:26:00,75s,19.80
2022-07-29T08:27:00,75s,20.09
2022-07-29T08:28:00,75s,20.11
2022-07-29T08:29:00,75s,20.22
2022-07-29T08:30:00,75s,20.30
2022-07-29T08:31:00,75s,21.22
2022-07-29T08:32:00,75s,23.26
2022-07-29T08:33:00,75s,24.98
2022-07-29T08:34:00,75s,26.21
2022-07-29T08:35:00,75s,26.18
2022-07-29T08:36:00,75s,26.19
2022-07-29T08:37:00,75s,26.20
2022-07-29T08:38:00,75s,26.83
2022-07-29T08:39:00,75s,26.55
2022-07-29T08:40:00,75s,26.38
2022-07-29T08:41:00,75s,26.39
2022-07-29T08:42:00,75s,26.07
2022-07-29T08:43:00,75s,26.14
2022-07-29T08:44:00,75s,26.11
2022-07-29T08:45:00,75s,26.15
2022-07-29T08:46:00,75s,26.15
2022-07-29T08:47:00,75s,26.18
2022-07-29T08:48:00,75s,26.17
2022-07-29T08:49:00,75s,26.46
2022-07-29T08:50:00,75s,26.24
2022-07-29T08:51:00,75s,25.29
2022-07-29T08:52:00,75s,26.45
2022-07-29T08:53:00,75s,26.29
2022-07-29T08:54:00,75s,25.97
2022-07-29T08:55:00,75s,25.76
2022-07-29T08:56:00,75s,24.47
2022-07-29T08:57:00,75s,23.83
2022-07-29T08:58:00,75s,22.06
2022-07-29T08:59:00,75s,20.98
2022-07-29T09:00:00,75s,20.74
2022-07-29T09:01:00,75s,20.22
2022-07-29T09:02:00,75s,20.26
2022-07-29T09:03:00,75s,20.48
2022-07-29T09:04:00,75s,20.39
2022-07-29T09:05:00,75s,20.61
2022-07-29T09:06:00,75s,20.43
2022-07-29T09:07:00,75s,20.36
2022-07-29T09:08:00,75s,20.33
2022-07-29T09:09:00,75s,20.66
2022-07-29T09:10:00,75s,20.53
2022-07-29T09:11:00,75s,21.23
2022-07-29T09:12:00,75s,20.72
2022-07-29T09:13:00,75s,20.56
2022-07-29T09:14:00,75s,20.51
2022-07-29T09:15:00,75s,20.72
2022-07-29T09:16:00,75s,20.69
2022-07-29T09:17:00,75s,20.62
2022-07-29T09:18:00,75s,20.59
2022-07-29T09:19:00,75s,20.57
2022-07-29T09:20:00,75s,20.50
2022-07-29T09:21:00,75s,20.68
2022-07-29T09:22:00,75s,21.05
2022-07-29T09:23:00,75s,20.60
2022-07-29T09:24:00,75s,21.13
2022-07-29T09:25:00,75s,22.78
2022-07-29T09:26:00,75s,24.68
2022-07-29T09:27:00,75s,26.47
2022-07-29T09:28:00,75s,27.26
2022-07-29T09:29:00,75s,27.54
2022-07-29T09:30:00,75s,27.87
2022-07-29T09:31:00,75s,28.06
2022-07-29T09:32:00,75s,27.88
2022-07-29T09:33:00,75s,28.74
2022-07-29T09:34:00,75s,28.18
2022-07-29T09:35:00,75s,28.40
2022-07-29T09:36:00,75s,28.57
2022-07-29T09:37:00,75s,28.45
2022-07-29T09:38:00,75s,28.54
2022-07-29T09:39:00,75s,28.54
2022-07-29T09:40:00,75s,29.07
2022-07-29T09:41:00,75s,28.52
2022-07-29T09:42:00,75s,28.95
2022-07-29T09:43:00,75s,28.47
2022-07-29T09:44:00,75s,28.45
2022-07-29T09:45:00,75s,28.70
2022-07-29T09:46:00,75s,28.65
2022-07-29T09:47:00,75s,28.55
2022-07-29T09:48:00,75s,28.44
2022-07-29T09:49:00,75s,28.52
2022-07-29T09:50:00,75s,28.55
2022-07-29T09:51:00,75s,28.32
2022-07-29T09:52:00,75s,28.48
2022-07-29T09:53:00,75s,28.52
2022-07-29T09:54:00,75s,28.47
2022-07-29T09:55:00,75s,28.98
2022-07-29T09:56:00,75s,28.57
2022-07-29T09:57:00,75s,28.48
2022-07-29T09:58:00,75s,28.54
2022-07-29T09:59:00,75s,28.38
2022-07-29T10:00:00,75s,28.61
2022-07-29T10:01:00,75s,28.41
2022-07-29T10:02:00,75s,28.76
2022-07-29T10:03:00,75s,28.47
2022-07-29T10:04:00,75s,28.59
2022-07-29T10:05:00,75s,28.38
2022-07-29T10:06:00,75s,28.43
2022-07-29T10:07:00,75s,28.71
2022-07-29T10:08:00,75s,28.83
2022-07-29T10:09:00,75s,29.18
2022-07-29T10:10:00,75s,28.75
2022-07-29T10:11:00,75s,28.90
2022-07-29T10:12:00,75s,25.89
2022-07-29T10:13:00,75s,29.12
2022-07-29T10:14:00,75s,28.02
2022-07-29T10:15:00,75s,26.59
2022-07-29T10:16:00,75s,24.13
2022-07-29T10:17:00,75s,22.09
2022-07-29T10:18:00,75s,23.21
2022-07-29T10:19:00,75s,25.36
2022-07-29T10:20:00,75s,27.38
2022-07-29T10:21:00,75s,28.79
2022-07-29T10:22:00,75s,28.62
2022-07-29T10:23:00,75s,29.02
2022-07-29T10:24:00,75s,28.57
2022-07-29T10:25:00,75s,28.44
2022-07-29T10:26:00,75s,28.61
2022-07-29T10:27:00,75s,28.63
2022-07-29T10:28:00,75s,28.46
2022-07-29T10:29:00,75s,28.79
2022-07-29T10:30:00,75s,28.36
2022-07-29T10:31:00,75s,28.49
2022-07-29T10:32:00,75s,28.50
2022-07-29T10:33:00,75s,28.35
2022-07-29T10:34:00,75s,28.20
2022-07-29T10:35:00,75s,28.35
2022-07-29T10:36:00,75s,27.84
2022-07-29T10:37:00,75s,28.00
2022-07-29T10:38:00,75s,28.41
2022-07-29T10:39:00,75s,27.78
2022-07-29T10:40:00,75s,27.50
2022-07-29T10:41:00,75s,27.77
2022-07-29T10:42:00,75s,27.78
2022-07-29T10:43:00,75s,27.79
2022-07-29T10:44:00,75s,27.90
2022-07-29T10:45:00,75s,27.77
2022-07-29T10:46:00,75s,27.72
2022-07-29T10:47:00,75s,27.88
2022-07-29T10:48:00,75s,27.99
2022-07-29T10:49:00,75s,28.25
2022-07-29T10:50:00,75s,28.22
2022-07-29T10:51:00,75s,28.12
2022-07-29T10:52:00,75s,28.16
2022-07-29T10:53:00,75s,28.69
2022-07-29T10:54:00,75s,28.12
2022-07-29T10:55:00,75s,28.37
2022-07-29T10:56:00,75s,28.28
2022-07-29T10:57:00,75s,27.78
2022-07-29T10:58:00,75s,27.61
2022-07-29T10:59:00,75s,28.39
2022-07-29T11:00:00,75s,27.73
2022-07-29T11:01:00,75s,27.10
2022-07-29T11:02:00,75s,26.26
2022-07-29T11:03:00,75s,24.28
2022-07-29T11:04:00,75s,23.21
2022-07-29T11:05:00,75s,21.38
2022-07-29T11:06:00,75s,21.47
2022-07-29T11:07:00,75s,21.34
2022-07-29T11:08:00,75s,21.33
2022-07-29T11:09:00,75s,21.24
2022-07-29T11:10:00,75s,21.28
2022-07-29T11:11:00,75s,21.91
2022-07-29T11:12:00,75s,23.75
2022-07-29T11:13:00,75s,25.75
2022-07-29T11:14:00,75s,27.25
2022-07-29T11:15:00,75s,27.84
2022-07-29T11:16:00,75s,27.58
2022-07-29T11:17:00,75s,27.60
2022-07-29T11:18:00,75s,27.47
2022-07-29T11:19:00,75s,27.39
2022-07-29T11:20:00,75s,27.09
2022-07-29T11:21:00,75s,27.06
2022-07-29T11:22:00,75s,27.04
2022-07-29T11:23:00,75s,26.96
2022-07-29T11:24:00,75s,27.22
2022-07-29T11:25:00,75s,26.38
2022-07-29T11:26:00,75s,26.27
2022-07-29T11:27:00,75s,26.30
2022-07-29T11:28:00,75s,26.29
2022-07-29T11:29:00,75s,26.14
2022-07-29T11:30:00,75s,26.12
2022-07-29T11:31:00,75s,26.23
2022-07-29T11:32:00,75s,25.07
2022-07-29T11:33:00,75s,20.88
2022-07-29T11:34:00,75s,20.85
2022-07-29T11:35:00,75s,20.85
2022-07-29T11:36:00,75s,20.84
2022-07-29T11:37:00,75s,20.87
2022-07-29T11:38:00,75s,20.94
2022-07-29T11:39:00,75s,20.96
2022-07-29T11:40:00,75s,21.05
2022-07-29T11:41:00,75s,20.92
2022-07-29T11:42:00,75s,21.09
2022-07-29T11:43:00,75s,20.87
2022-07-29T11:44:00,75s,20.89
2022-07-29T11:45:00,75s,20.94
2022-07-29T11:46:00,75s,20.95
2022-07-29T11:47:00,75s,20.85
2022-07-29T11:48:00,75s,20.73
2022-07-29T11:49:00,75s,20.91
2022-07-29T11:50:00,75s,20.93
2022-07-29T11:51:00,75s,20.86
2022-07-29T11:52:00,75s,20.93
2022-07-29T11:53:00,75s,20.91
2022-07-29T11:54:00,75s,21.70
2022-07-29T11:55:00,75s,21.27
2022-07-29T11:56:00,75s,21.34
2022-07-29T11:57:00,75s,21.37
2022-07-29T11:58:00,75s,21.31
2022-07-29T11:59:00,75s,21.30
2022-07-29T12:00:00,75s,21.47
2022-07-29T12:01:00,75s,21.45
2022-07-29T12:02:00,75s,21.36
2022-07-29T12:03:00,75s,21.43
2022-07-29T12:04:00,75s,21.65
2022-07-29T12:05:00,75s,23.55
2022-07-29T12:06:00,75s,25.45
2022-07-29T12:07:00,75s,27.78
2022-07-29T12:08:00,75s,28.60
2022-07-29T12:09:00,75s,28.48
2022-07-29T12:10:00,75s,28.74
2022-07-29T12:11:00,75s,28.63
2022-07-29T12:12:00,75s,28.75
2022-07-29T12:13:00,75s,28.60
2022-07-29T12:14:00,75s,28.86
2022-07-29T12:15:00,75s,29.30
2022-07-29T12:16:00,75s,29.54
2022-07-29T12:17:00,75s,29.27
2022-07-29T12:18:00,75s,29.60
2022-07-29T12:19:00,75s,29.70
2022-07-29T12:20:00,75s,29.47
2022-07-29T12:21:00,75s,29.62
2022-07-29T12:22:00,75s,29.40
2022-07-29T12:23:00,75s,29.26
2022-07-29T12:24:00,75s,29.46
2022-07-29T12:25:00,75s,29.25
2022-07-29T12:26:00,75s,29.19
2022-07-29T12:27:00,75s,29.13
2022-07-29T12:28:00,75s,29.53
2022-07-29T12:29:00,75s,29.40
2022-07-29T12:30:00,75s,28.89
2022-07-29T12:31:00,75s,28.89
2022-07-29T12:32:00,75s,28.89
2022-07-29T12:33:00,75s,29.21
2022-07-29T12:34:00,75s,29.34
2022-07-29T12:35:00,75s,28.75
2022-07-29T12:36:00,75s,28.86
2022-07-29T12:37:00,75s,28.76
2022-07-29T12:38:00,75s,29.09
2022-07-29T12:39:00,75s,28.55
2022-07-29T12:40:00,75s,28.69
2022-07-29T12:41:00,75s,28.59
2022-07-29T12:42:00,75s,28.53
2022-07-29T12:43:00,75s,37.77
2022-07-29T12:44:00,75s,37.12
2022-07-29T12:45:00,75s,37.14
2022-07-29T12:46:00,75s,36.89
2022-07-29T12:47:00,75s,33.96
2022-07-29T12:48:00,75s,28.08
2022-07-29T12:49:00,75s,21.64
2022-07-29T12:50:00,75s,24.69
2022-07-29T12:51:00,75s,22.34
2022-07-29T12:52:00,75s,21.95
2022-07-29T12:53:00,75s,21.69
2022-07-29T12:54:00,75s,21.77
2022-07-29T12:55:00,75s,23.72
2022-07-29T12:56:00,75s,21.68
2022-07-29T12:57:00,75s,21.87
2022-07-29T12:58:00,75s,22.75
2022-07-29T12:59:00,75s,25.01
2022-07-29T13:00:00,75s,26.55
2022-07-29T13:01:00,75s,28.43
2022-07-29T13:02:00,75s,29.10
2022-07-29T13:03:00,75s,29.70
2022-07-29T13:04:00,75s,28.70
2022-07-29T13:05:00,75s,28.60
2022-07-29T13:06:00,75s,28.87
2022-07-29T13:07:00,75s,29.02
2022-07-29T13:08:00,75s,29.03
2022-07-29T13:09:00,75s,28.82
2022-07-29T13:10:00,75s,29.29
2022-07-29T13:11:00,75s,29.08
2022-07-29T13:12:00,75s,28.86
2022-07-29T13:13:00,75s,29.04
2022-07-29T13:14:00,75s,29.84
2022-07-29T13:15:00,75s,29.05
2022-07-29T13:16:00,75s,29.20
2022-07-29T13:17:00,75s,28.52
2022-07-29T13:18:00,75s,27.79
2022-07-29T13:19:00,75s,27.69
2022-07-29T13:20:00,75s,26.80
2022-07-29T13:21:00,75s,26.43
2022-07-29T13:22:00,75s,25.35
2022-07-29T13:23:00,75s,21.11
2022-07-29T13:24:00,75s,20.92
2022-07-29T13:25:00,75s,21.43
2022-07-29T13:26:00,75s,21.04
2022-07-29T13:27:00,75s,20.90
2022-07-29T13:28:00,75s,20.97
2022-07-29T13:29:00,75s,20.94
2022-07-29T13:30:00,75s,20.92